AEROCUBE 7C (OCSD C) (43043 NORAD) Tracking and Keplerian Element Data

This shows tracking and keplerian element data for the satellite.

Feedback or suggestion? Click here.




ElementValue
Catalog43043
NameAEROCUBE 7C (OCSD C)
Epoch Orbit26450
Epoch Day224.13984168
Epoch Year2022
RAAN111.3257
Inclination51.6172
Eccentricity0.0009085
Argument of Perigee245.5045
Mean Anonmoly114.5026
Mean Motion16.19381516
Decay Rate0.02166709
L11 43043U 17071G 22224.13984168 .02166709 11821-4 11326-2 0 9995
L22 43043 51.6172 111.3257 0009085 245.5045 114.5026 16.19381516264502



Live tracking and technical data element details for AEROCUBE 7C (OCSD C) (NORAD 43043). AEROCUBE 7C (OCSD C) can be tracked NOW for your location showing map with azimuth and elevation plus other details from your city location.







IsCatalogInMostPopularTable: catalog: 43043, numindb: 597
Update: records affected: 1



GetName: 43043 AEROCUBE 7C (OCSD C)

Hit Count: updated at: Fri, 16 May 2025 11:44:13 GMT